GSAT0213 (GALILEO 17)

Last updated on Nov. 17, 2019, 4:19 a.m. UTC

1 41861U 16069C   19320.55843604  .00000083  00000-0  00000+0 0  9992
2 41861  54.6187 167.7866 0001352 283.2770  76.7930  1.70473261 18668
UTC
Height (km)
Latitude
Longitude
Inclination
Orbital Period
UTC large
Height (km)
Speed (km/s)
/
Latitude / Longitude
Inclination (degrees)
Orbital Period (minutes)
Azimuth
Elevation
Range (km)
Doppler Factor
iOS Compass Heading
iOS Angle

Next 30 passes for location: Hong Kong

Rise time Rise Azimuth (degrees) Set time Set Azimuth (degrees) Duration Max altitude (degrees)

No matching passes for this satellites